Regional Weather Roundup
Issued by NWS

Home | Current Version | Previous Version | Graphics & Text | Print | Product List | Glossary On
Versions: 1 2 3 4 5 6 7 8 9 10 11 12 13 14 15 16 17 18 19 20 21 22 23 24 25 26 27 28 29 30 31 32 33 34 35 36 37 38 39 40 41 42 43 44 45 46 47 48 49 50
000
ASUS43 KTOP 010259
RWRKS

WEATHER ROUNDUP FOR KANSAS
NATIONAL WEATHER SERVICE GOODLAND KS
1000 PM CDT MON AUG 31 2015

NOTE:  "FAIR" INDICATES FEW OR NO CLOUDS BELOW 12,000 FEET WITH NO
SIGNIFICANT WEATHER AND/OR OBSTRUCTIONS TO VISIBILITY.

KSZ001>006-013>018-027>032-041>047-010400-
NORTHWEST KANSAS

CITY           SKY/WX    TMP DP  RH WIND       PRES   REMARKS
GOODLAND       PTCLDY    74  52  46 S9        29.95R
HAYS           CLEAR     81  52  36 SE12      29.91R
HILL CITY      CLEAR     82  51  34 S10       29.90R
RUSSELL        CLEAR     80  57  45 SE13      29.91R
$$

KSZ061>065-074>080-084>089-010400-
SOUTHWEST KANSAS

CITY           SKY/WX    TMP DP  RH WIND       PRES   REMARKS
DODGE CITY     CLEAR     77  52  41 SE13      29.95R
ELKHART          N/A     72  53  51 S12         N/A
GARDEN CITY    CLEAR     74  55  51 SE9       29.93R
GREAT BEND     CLEAR     79  55  44 S12       29.92R
LIBERAL        PTCLDY    75  48  38 S9        29.96R
$$

KSZ066>073-081>083-090>101-010400-
SOUTHEAST KANSAS

CITY           SKY/WX    TMP DP  RH WIND       PRES   REMARKS
CHANUTE        PTCLDY    78  71  79 S8        30.00R
COFFEYVILLE    CLEAR     78  71  79 S6        29.99R
HUTCHINSON     CLEAR     78  65  63 SE9       29.95R
NEWTON         CLEAR     75  61  60 SE9       29.99R
PARSONS        CLEAR     78  71  79 S6        30.00R
WICHITA INTL   PTCLDY    79  63  57 SE10      29.96R
WICHITA JABRA  CLEAR     78  65  63 SE9       29.97R
WINFIELD       CLEAR     80  68  66 SE14      29.98R
$$

KSZ007>012-019>026-033>040-048>060-102>105-010400-
NORTHEAST KANSAS

CITY           SKY/WX    TMP DP  RH WIND       PRES   REMARKS
CONCORDIA      CLEAR     78  65  63 S13       29.91R
EMPORIA        CLEAR     77  67  71 S13       29.98R
LAWRENCE       CLEAR     75  70  84 SE7       29.97R
MANHATTAN      CLEAR     79  70  74 S8        29.93R
OLATHE IND     CLEAR     77  70  79 S8        30.00R
OLATHE EXE     CLEAR     76  70  82 S7        29.99R
SALINA         CLEAR     82  65  56 S16       29.92R
TOPEKA BILLARD CLEAR     78  70  76 SE7       29.96R
TOPEKA FORBES  CLEAR     77  70  79 S7        29.97R
$$



USA.gov is the U.S. government's official web portal to all federal, state and local government web resources and services.